Aeroporto :
LOGIN :

Iscrizione | Disclaimer

   EN    FR    IT 

 










Sommario :    VFR   VFR Marginale   IFR   IFR Intensivo   IFR Molto Intensivo
Visibilità : 
Base nubi : 
>= 8 km
>= 3000ft
5 / 8 km
1000 / 3000 ft
1500m / 5 km
500 / 1000 ft
800 / 1500m
200 / 500 ft
< 800m
< 200 ft
Simboli :   Temporali  Nebbia  Neve Forte  Precipitazioni Forti  Vento > 20 kt
SIGMETs :   Varie  Temporali  Ghiacco  Turbolenza  Onda orograficha  Ceneri Vulcaniche






- Altitudine del aeroporto : 26 ft


ETNT - Wittmundhaven AB

ULTIMO METAR :
  • 221420Z 28009KT 9999 SCT010 BKN026 07/05 Q1031 BLU

METARs OBSOLETI :
  • 221320Z 31008KT 9999 SCT010 BKN025 07/05 Q1031 BLU
  • 221220Z 32009KT 9999 SCT009 BKN024 07/06 Q1031 WHT

TAF TAF ETNT
Valido dal 22 a 15 ore il 23 a 00 ore UTC


221410Z 2215/2224 30012KT 8000 NSW SCT010 BKN020
TEMPO 2215/2224 32015KT 4000 -DZ SCT006 BKN008 BY ETGL



MetMap, La meteo Aeronautica in un colpo d'occhio ! - Copyright ORBIFLY Dicembre 2007 - Disclaimer

ORBIFLY MET'MAP TEAM :

Programmazione e sviluppo : Alexandra Zaïnal
Concezione : Baudouin d'Aumeries
Aiuto per la programmazione : Marc-Olivier Méhu
Supporto tecnico e logistico : Manuel Goepfert
Aiuto per la traduzione : Arnaldo La Scala

Contatto : metmap@orbifly.com




FONTI E CREDITI :

   NOAA